[[{"header":{"parameterUnit":"m.s-1","parameterCategory":1,"la1":30.2991,"la2":30.254,"lo1":-89.0895,"lo2":-89.0444,"dy":0.0017,"dx":0.0017,"nx":28,"ny":28,"refTime":"2023-09-17T09:00:00:Z","depth":0,"parameterNumber":2,"parameterNumberName":"U-component_of_WINDS"},"data":[0,0,0,0,0,0,0,0,0,0,0,0,0,0,0,0,0,0,0,0,0,0,0,0,0,0,0,0,0,0,0,0,0,0,0,0,0,0,0,0,0,0,0,0,0,0,0,0,0,0,0,0,0,0,0,0,0,0,-1.0758,-1.0758,0,-1.0769,-1.0769,-1.0769,-1.0747,-1.0746,-1.0745,-1.0745,-1.0755,-1.0756,-1.0757,0,0,0,0,0,0,0,0,0,0,0,0,0,-1.0719,-1.072,-1.0758,-1.0758,-1.0759,-1.0769,-1.0769,-1.0769,-1.0747,-1.0746,-1.0745,-1.0744,-1.0755,-1.0756,-1.0757,0,0,0,0,0,0,0,0,0,0,0,0,0,-1.0733,-1.072,-1.0758,-1.0749,-1.0748,-1.0769,-1.0769,-1.0769,-1.0747,-1.0746,-1.0745,-1.0744,-1.0754,-1.0756,-1.0757,-1.0787,0,0,-1.0762,-1.0762,0,0,0,0,0,0,0,0,-1.0732,-1.0735,-1.075,-1.075,-1.0749,-1.0755,-1.0759,-1.0775,-1.0747,-1.0748,-1.0745,-1.0744,-1.0756,-1.0757,-1.0762,-1.0788,-1.0788,-1.0762,-1.0763,-1.0763,-1.0764,0,0,0,0,0,0,0,-1.0731,-1.0734,-1.0762,-1.075,-1.075,-1.0744,-1.0745,-1.0762,-1.0758,-1.0747,-1.0746,-1.0747,-1.0755,-1.076,-1.0762,-1.0788,-1.0762,-1.0763,-1.0764,-1.0764,-1.0838,-1.0839,0,0,0,0,0,0,-1.0732,-1.0733,-1.0762,-1.0763,-1.0738,-1.0745,-1.0746,-1.0754,-1.0757,-1.0757,-1.0748,-1.0746,-1.0758,-1.076,-1.0762,-1.0796,-1.0763,-1.0764,-1.0765,-1.0837,-1.0838,-1.084,0,0,0,0,0,0,-1.0731,-1.0735,-1.0762,-1.0748,-1.0751,-1.0747,-1.0756,-1.0755,-1.076,-1.0758,-1.0757,-1.0754,-1.0758,-1.076,-1.0781,-1.0797,-1.0765,-1.0766,-1.0836,-1.0838,-1.0839,-1.0866,0,0,0,0,0,0,-1.073,-1.0734,-1.0746,-1.0748,-1.0751,-1.0781,-1.0757,-1.0756,-1.0762,-1.076,-1.0763,-1.0763,-1.0757,-1.0779,-1.0782,-1.0798,-1.0767,-1.0834,-1.0837,-1.0839,-1.0864,-1.0869,-1.0873,0,0,0,0,0,-1.0729,-1.0754,-1.0747,-1.075,-1.0766,-1.0782,-1.0784,-1.0777,-1.0764,-1.0775,-1.0774,-1.0763,-1.0794,-1.0781,-1.0785,-1.0801,-1.0833,-1.0836,-1.0838,-1.0862,-1.0868,-1.0873,0,0,0,0,0,0,-1.0754,-1.0754,-1.0746,-1.0773,-1.0777,-1.0778,-1.0793,-1.0783,-1.0792,-1.0789,-1.078,-1.0781,-1.0803,-1.0804,-1.079,-1.083,-1.0812,-1.0815,-1.0828,-1.0834,-1.0838,-1.0837,-1.0769,0,0,0,0,0,-1.0763,-1.0776,-1.0775,-1.0798,-1.0801,-1.0796,-1.0803,-1.0797,-1.0801,-1.0803,-1.0803,-1.0808,-1.0819,-1.0826,-1.0836,-1.0864,-1.0864,-1.0877,-1.0881,-1.0885,-1.0888,-1.0902,-1.0907,-1.0848,-1.0848,-1.0848,0,0,-1.0781,-1.0782,-1.0791,-1.0803,-1.0806,-1.0819,-1.0798,-1.0813,-1.0823,-1.0806,-1.0825,-1.0825,-1.083,-1.0854,-1.0865,-1.0855,-1.0904,-1.0888,-1.0891,-1.0892,-1.0905,-1.091,-1.0915,-1.085,-1.0849,-1.0849,0,0,-1.0821,-1.0823,-1.0843,-1.0846,-1.085,-1.0847,-1.0851,-1.0853,-1.0852,-1.0872,-1.0859,-1.087,-1.0889,-1.0892,-1.0897,-1.0936,-1.0926,-1.094,-1.0963,-1.0976,-1.0981,-1.0985,-1.0998,-1.1004,-1.0943,-1.0943,-1.0943,0,-1.0843,-1.0862,-1.0854,-1.0869,-1.0875,-1.0859,-1.0878,-1.0882,-1.0889,-1.0893,-1.0883,-1.0906,-1.0908,-1.0932,-1.0941,-1.0946,-1.095,-1.0939,-1.0981,-1.0985,-1.0989,-1.1001,-1.1007,-1.0944,-1.0944,-1.0944,-1.0944,0,-1.0889,-1.0902,-1.0917,-1.0925,-1.0931,-1.0949,-1.0943,-1.095,-1.0943,-1.0941,-1.096,-1.0962,-1.0972,-1.0977,-1.0971,-1.1,-1.0994,-1.0982,-1.0964,-1.0996,-1.1008,-1.1013,-1.0947,-1.0946,-1.0946,-1.0945,0,0,-1.0946,-1.0947,-1.0953,-1.0955,-1.0958,-1.0969,-1.0985,-1.0994,-1.1001,-1.1006,-1.1019,-1.1035,-1.1024,-1.1029,-1.1022,-1.1034,-1.1064,-1.1021,-1.1021,-1.1029,-1.1096,-1.1105,-1.1111,-1.1057,-1.1058,-1.1059,-1.1096,0,-1.0985,-1.1013,-1.1005,-1.1033,-1.1044,-1.1029,-1.1043,-1.1046,-1.1044,-1.1053,-1.1051,-1.1062,-1.1047,-1.1049,-1.106,-1.1058,-1.1078,-1.1056,-1.1069,-1.107,-1.1068,-1.1117,-1.1126,-1.1161,-1.11,-1.1101,-1.1102,0,-1.1035,-1.1041,-1.107,-1.107,-1.1074,-1.1087,-1.1094,-1.1104,-1.1106,-1.1104,-1.1109,-1.1099,-1.1115,-1.1096,-1.1117,-1.1102,-1.1106,-1.1106,-1.1107,-1.1108,-1.1088,-1.1119,-1.1172,-1.1177,-1.1109,-1.1108,-1.1108,0,-1.1073,-1.1089,-1.1108,-1.1111,-1.1111,-1.112,-1.1121,-1.1122,-1.1128,-1.1134,-1.1137,-1.1145,-1.115,-1.1156,-1.1149,-1.1136,-1.117,-1.1151,-1.1168,-1.1168,-1.1176,-1.1176,-1.123,-1.118,-1.118,-1.1179,-1.1179,0,-1.1117,-1.1135,-1.1125,-1.1137,-1.1156,-1.1146,-1.1166,-1.1165,-1.1166,-1.1177,-1.1164,-1.1174,-1.1165,-1.1174,-1.1169,-1.1186,-1.1188,-1.1186,-1.1185,-1.1187,-1.1188,-1.119,-1.1188,-1.1181,-1.1181,-1.118,-1.118,0,-1.1164,-1.1157,-1.1177,-1.1175,-1.1175,-1.1189,-1.1188,-1.1198,-1.1195,-1.1208,-1.1211,-1.1205,-1.1216,-1.1209,-1.122,-1.1216,-1.1239,-1.1234,-1.1238,-1.1236,-1.1254,-1.1252,-1.1312,-1.1319,-1.1264,-1.1265,-1.1265,0,-1.1192,-1.1206,-1.1205,-1.1211,-1.1212,-1.1223,-1.1228,-1.1218,-1.1224,-1.1228,-1.1238,-1.1247,-1.1253,-1.127,-1.1267,-1.1275,-1.127,-1.129,-1.1271,-1.1273,-1.127,-1.1269,-1.127,-1.1294,-1.1295,-1.1296,-1.1296,0,-1.1244,-1.124,-1.1248,-1.1254,-1.1261,-1.1266,-1.1269,-1.1275,-1.1266,-1.1273,-1.1283,-1.1288,-1.1298,-1.1307,-1.1313,-1.1314,-1.1303,-1.1302,-1.1306,-1.1309,-1.1311,-1.131,-1.1248,-1.1301,-1.13,-1.13,-1.13,-1.1299,-1.1282,-1.1293,-1.1293,-1.1302,-1.1304,-1.1308,-1.1317,-1.1314,-1.1322,-1.1329,-1.1323,-1.1335,-1.1336,-1.1344,-1.1345,-1.1354,-1.1346,-1.1352,-1.1354,-1.1355,-1.1357,-1.1309,-1.1355,-1.1355,-1.1355,-1.1355,-1.1355,0,-1.1332,-1.1332,-1.134,-1.1345,-1.1352,-1.1341,-1.1344,-1.1351,-1.1361,-1.1363,-1.137,-1.1381,-1.1389,-1.1386,-1.1393,-1.1401,-1.1396,-1.1403,-1.1402,-1.1402,-1.1365,-1.136,-1.1407,-1.1407,-1.1407,-1.1407,-1.1407,-1.1407,-1.1359,-1.1376,-1.1372,-1.139,-1.1389,-1.14,-1.1403,-1.1406,-1.1407,-1.142,-1.1426,-1.1424,-1.1424,-1.1431,-1.1438,-1.1437,-1.144,-1.1448,-1.1445,-1.141,-1.1405,-1.14,-1.1396,-1.1449,-1.1449,-1.1482,-1.1483,-1.1483]},{"header":{"parameterUnit":"m.s-1","parameterCategory":1,"la1":30.2991,"la2":30.254,"lo1":-89.0895,"lo2":-89.0444,"dy":0.0017,"dx":0.0017,"nx":28,"ny":28,"refTime":"2023-09-17T09:00:00:Z","depth":0,"parameterNumber":3,"parameterNumberName":"V-component_of_WINDS"},"data":[0,0,0,0,0,0,0,0,0,0,0,0,0,0,0,0,0,0,0,0,0,0,0,0,0,0,0,0,0,0,0,0,0,0,0,0,0,0,0,0,0,0,0,0,0,0,0,0,0,0,0,0,0,0,0,0,0,0,-2.6459,-2.6459,0,-2.6516,-2.6517,-2.6517,-2.6551,-2.6551,-2.6551,-2.6551,-2.6607,-2.6609,-2.661,0,0,0,0,0,0,0,0,0,0,0,0,0,-2.6375,-2.6376,-2.6459,-2.6459,-2.646,-2.6516,-2.6517,-2.6517,-2.6551,-2.6551,-2.6551,-2.6551,-2.6607,-2.6608,-2.661,0,0,0,0,0,0,0,0,0,0,0,0,0,-2.6419,-2.6376,-2.6458,-2.6483,-2.6486,-2.6516,-2.6517,-2.6518,-2.6551,-2.6551,-2.6551,-2.6551,-2.6606,-2.6608,-2.661,-2.6619,0,0,-2.6617,-2.6617,0,0,0,0,0,0,0,0,-2.6417,-2.6422,-2.6479,-2.6482,-2.6485,-2.6527,-2.6508,-2.6551,-2.6551,-2.6526,-2.6551,-2.6551,-2.658,-2.6584,-2.6594,-2.6621,-2.6624,-2.6617,-2.6618,-2.6619,-2.6619,0,0,0,0,0,0,0,-2.6414,-2.642,-2.6481,-2.648,-2.6483,-2.6491,-2.6497,-2.6516,-2.6551,-2.6528,-2.6531,-2.6537,-2.6582,-2.6592,-2.6596,-2.6624,-2.6617,-2.6618,-2.662,-2.6621,-2.6661,-2.6661,0,0,0,0,0,0,-2.6407,-2.6417,-2.6479,-2.6483,-2.6451,-2.6492,-2.6499,-2.6513,-2.6551,-2.6557,-2.6537,-2.6539,-2.6589,-2.6594,-2.6598,-2.661,-2.6619,-2.6621,-2.6622,-2.6661,-2.6661,-2.6661,0,0,0,0,0,0,-2.6405,-2.6412,-2.6477,-2.6451,-2.646,-2.6493,-2.6508,-2.6514,-2.6525,-2.6558,-2.6564,-2.6542,-2.6589,-2.6595,-2.6613,-2.6613,-2.6622,-2.6623,-2.6661,-2.6661,-2.6661,-2.6635,0,0,0,0,0,0,-2.6403,-2.6411,-2.6415,-2.6451,-2.6461,-2.6492,-2.6508,-2.6515,-2.6528,-2.6531,-2.6564,-2.6569,-2.659,-2.661,-2.6615,-2.6616,-2.6625,-2.6661,-2.6661,-2.6661,-2.6636,-2.6634,-2.6632,0,0,0,0,0,-2.6399,-2.6405,-2.6416,-2.6423,-2.6467,-2.6492,-2.6498,-2.6522,-2.6528,-2.6532,-2.6553,-2.6568,-2.6612,-2.6612,-2.6618,-2.6619,-2.6661,-2.6661,-2.6661,-2.6637,-2.6634,-2.6632,0,0,0,0,0,0,-2.6368,-2.641,-2.6422,-2.644,-2.6462,-2.6498,-2.6503,-2.6518,-2.6539,-2.654,-2.6568,-2.6576,-2.6591,-2.6607,-2.6606,-2.6629,-2.6638,-2.6639,-2.6618,-2.6616,-2.6614,-2.6609,-2.6627,0,0,0,0,0,-2.6363,-2.6381,-2.6417,-2.6429,-2.6439,-2.6469,-2.6481,-2.6498,-2.6522,-2.6531,-2.6554,-2.6575,-2.6594,-2.6606,-2.6625,-2.6638,-2.6646,-2.6642,-2.664,-2.6638,-2.6638,-2.6646,-2.6645,-2.6659,-2.6659,-2.6659,0,0,-2.6353,-2.6379,-2.6388,-2.6423,-2.6442,-2.6459,-2.6477,-2.6494,-2.6506,-2.6533,-2.6552,-2.6569,-2.6596,-2.6611,-2.662,-2.6625,-2.6636,-2.6638,-2.6636,-2.6637,-2.6646,-2.6645,-2.6643,-2.6659,-2.6659,-2.6659,0,0,-2.6344,-2.6365,-2.6377,-2.6397,-2.6426,-2.6446,-2.6449,-2.6482,-2.6495,-2.6514,-2.6535,-2.655,-2.6581,-2.6599,-2.6613,-2.661,-2.6624,-2.6615,-2.6605,-2.6612,-2.6611,-2.661,-2.6609,-2.6608,-2.6616,-2.6615,-2.6615,0,-2.6327,-2.6354,-2.6381,-2.6398,-2.6412,-2.6438,-2.645,-2.6467,-2.6501,-2.651,-2.6516,-2.6557,-2.6576,-2.6596,-2.6596,-2.6606,-2.6609,-2.6611,-2.6609,-2.6609,-2.6608,-2.6607,-2.6607,-2.6614,-2.6614,-2.6614,-2.6615,0,-2.6333,-2.6351,-2.6357,-2.639,-2.6405,-2.6419,-2.6447,-2.646,-2.6475,-2.6494,-2.6513,-2.6538,-2.6562,-2.6568,-2.6583,-2.6591,-2.6593,-2.6604,-2.6614,-2.6605,-2.6605,-2.6605,-2.6612,-2.6613,-2.6613,-2.6614,0,0,-2.6304,-2.6353,-2.6354,-2.6369,-2.6404,-2.6418,-2.6433,-2.6458,-2.6467,-2.6489,-2.6502,-2.6529,-2.6539,-2.6554,-2.6571,-2.6578,-2.6574,-2.6588,-2.6589,-2.6584,-2.6583,-2.6575,-2.6574,-2.6584,-2.6584,-2.6584,-2.6581,0,-2.6299,-2.6329,-2.6353,-2.6373,-2.639,-2.6415,-2.6428,-2.645,-2.6468,-2.6484,-2.6504,-2.6522,-2.6535,-2.6544,-2.6552,-2.6573,-2.6574,-2.6573,-2.6595,-2.6596,-2.6587,-2.6574,-2.6565,-2.6561,-2.6581,-2.6581,-2.6581,0,-2.6298,-2.632,-2.6341,-2.6374,-2.6382,-2.6393,-2.6418,-2.6433,-2.6459,-2.6472,-2.6488,-2.6507,-2.6523,-2.6532,-2.6554,-2.6553,-2.6564,-2.6575,-2.6576,-2.6578,-2.6587,-2.6576,-2.656,-2.6559,-2.6581,-2.6581,-2.6581,0,-2.6274,-2.6309,-2.6327,-2.6339,-2.6378,-2.6385,-2.6401,-2.6427,-2.644,-2.6462,-2.647,-2.6493,-2.6505,-2.6522,-2.6546,-2.655,-2.6566,-2.6577,-2.6576,-2.6576,-2.6578,-2.6577,-2.6564,-2.6586,-2.6586,-2.6586,-2.6586,0,-2.6266,-2.6278,-2.6317,-2.6327,-2.6341,-2.6369,-2.6382,-2.64,-2.6423,-2.6437,-2.646,-2.6473,-2.6504,-2.652,-2.6538,-2.6554,-2.6559,-2.657,-2.6574,-2.6567,-2.6566,-2.6574,-2.6575,-2.6585,-2.6585,-2.6585,-2.6585,0,-2.6242,-2.6269,-2.6289,-2.6325,-2.6334,-2.6342,-2.6372,-2.6383,-2.6403,-2.642,-2.6426,-2.6457,-2.6477,-2.6502,-2.653,-2.6543,-2.6556,-2.6564,-2.6548,-2.6551,-2.6549,-2.6548,-2.6539,-2.6539,-2.6561,-2.6561,-2.6561,0,-2.6235,-2.6244,-2.6281,-2.6293,-2.6308,-2.6326,-2.634,-2.6368,-2.6382,-2.6412,-2.6419,-2.6441,-2.646,-2.6491,-2.6515,-2.6537,-2.6545,-2.6541,-2.6548,-2.6541,-2.6544,-2.6543,-2.6544,-2.6538,-2.6538,-2.6537,-2.6537,0,-2.6218,-2.6231,-2.6251,-2.6275,-2.6291,-2.6312,-2.6333,-2.6341,-2.6373,-2.6387,-2.6408,-2.6423,-2.6452,-2.6474,-2.6499,-2.6515,-2.6531,-2.6535,-2.6536,-2.6528,-2.6518,-2.6523,-2.6542,-2.6535,-2.6535,-2.6535,-2.6535,-2.6535,-2.6202,-2.6212,-2.6239,-2.6261,-2.628,-2.6299,-2.6311,-2.6333,-2.6351,-2.6377,-2.6393,-2.6413,-2.6439,-2.6474,-2.649,-2.6506,-2.6512,-2.6513,-2.6514,-2.6513,-2.6511,-2.6516,-2.6511,-2.6511,-2.6511,-2.6511,-2.6511,0,-2.6187,-2.6206,-2.6225,-2.6254,-2.6271,-2.6286,-2.631,-2.6323,-2.6341,-2.6363,-2.6382,-2.6406,-2.6427,-2.6454,-2.6477,-2.6485,-2.6493,-2.649,-2.6489,-2.6492,-2.6505,-2.6501,-2.6483,-2.6483,-2.6483,-2.6483,-2.6483,-2.6483,-2.6181,-2.6198,-2.6214,-2.6241,-2.626,-2.6281,-2.6294,-2.6311,-2.6329,-2.6356,-2.6374,-2.6391,-2.6415,-2.644,-2.646,-2.6467,-2.6474,-2.6469,-2.6478,-2.6489,-2.6491,-2.6494,-2.6491,-2.647,-2.647,-2.6465,-2.6465,-2.6465]}]]